Location: RyutenAO
(34.8939°N, 134.0022°E)
Time: 09:32:05
(UTC+09:00)

Oscar 19 - Pass Details

Date: 04 April 2023
Orbit: 773 x 788 km, 98.8° (Epoch: 29 May)

Event Time Altitude Azimuth Distance (km) Brightness Sun altitude
Rises 03:36:24 0° 21° (NNE) 3,269 14.6 -26.5°
Reaches altitude 10° 03:38:51 10° 29° (NNE) 2,340 13.8 -26.0°
Maximum altitude 03:43:44 42° 99° (E) 1,110 11.7 -25.1°
Enters shadow 03:47:57 13° 167° (SSE) 2,104 12.7 -24.3°
